Torna al catalogo

STARLINK-4012

AttivoComunicazioniVLEO
NORAD 52602·PAYLOAD·🇺🇸 United States

Lanciato May 14, 2022 da Cape Canaveral Space Force Station

Loading…

Prossimi Passaggi (prossime 24 ore)

TLE

AggiornatoSource: CelesTrak SupGP

Epoca: Sep 15, 2026, 02:51 UTC

1 52602C 22052E   26258.11923611  .00053985  00000+0  15449-2 0  2585
2 52602  53.1601 140.7561 0001303  79.3021 151.1823 15.35365308    17

Traccia STARLINK-4012 in tempo reale con AllMySat

Download on the App Store